Location: Gorze? G�rny
(49.8500°N, 19.5000°E)
Time: 05:23:18
(UTC+00:00)

Cosmos 1733 Rocket - Pass Details

Date: 13 May 2021
Orbit: 603 x 628 km, 82.5° (Epoch: 20 June)

Event Time Altitude Azimuth Distance (km) Brightness Sun altitude
Rises 20:15:12 0° 357° (N) 2,874 7.5 -14.6°
Reaches altitude 10° 20:17:38 10° 8° (N) 1,963 6.3 -14.8°
Maximum altitude 20:21:31 31° 71° (ENE) 1,071 4.1 -15.2°
Enters shadow 20:23:23 22° 114° (ESE) 1,331 4.3 -15.3°
